Location: Unspecified
(42.1900°N, 71.3291°W)
Time: 17:35:34
(UTC-04:00)

Resurs 1-4 Rocket - Visible Passes

Search period start: 28 March 2017 00:00
Search period end: 07 April 2017 00:00
Orbit: 800 x 814 km, 98.5° (Epoch: 27 March)

Date Brightness Start Highest point End Pass type
(mag) Time Alt. Az. Time Alt. Az. Time Alt. Az.
28 Mar 3.2 03:15:23 10° NNE 03:18:43 40° NNE 03:18:43 40° NNE visible
28 Mar 3.9 04:57:08 10° NNW 04:59:48 14° WNW 04:59:48 14° WNW visible
29 Mar 3.7 02:50:58 10° NNE 02:53:59 32° NE 02:53:59 32° NE visible
29 Mar 3.5 04:31:34 10° NNW 04:35:04 22° NW 04:35:04 22° NW visible
30 Mar 4.2 02:26:48 10° NE 02:29:14 22° ENE 02:29:14 22° ENE visible
30 Mar 3.1 04:06:29 10° N 04:10:20 33° NW 04:10:20 33° NW visible
31 Mar 4.6 02:03:05 10° NE 02:04:30 14° ENE 02:04:30 14° ENE visible
31 Mar 2.7 03:41:39 10° N 03:45:35 46° NNW 03:45:35 46° NNW visible
01 Apr 2.8 03:17:00 10° NNE 03:20:51 50° NNE 03:20:51 50° NNE visible
01 Apr 3.9 04:58:53 10° NNW 05:01:24 14° WNW 05:01:56 13° WNW visible
02 Apr 3.3 02:52:34 10° NNE 02:56:06 38° NE 02:56:06 38° NE visible
02 Apr 3.5 04:33:15 10° NNW 04:37:09 22° WNW 04:37:11 22° WNW visible
03 Apr 3.9 02:28:23 10° NE 02:31:21 26° ENE 02:31:21 26° ENE visible
03 Apr 2.9 04:08:08 10° N 04:12:27 34° WNW 04:12:27 34° WNW visible
04 Apr 4.5 02:04:37 10° NE 02:06:36 16° ENE 02:06:36 16° ENE visible
04 Apr 2.5 03:43:17 10° N 03:47:42 51° NW 03:47:42 51° NW visible
05 Apr 2.4 03:18:37 10° NNE 03:22:57 61° NNE 03:22:57 61° NNE visible
05 Apr 4.0 05:00:38 10° NNW 05:02:59 13° WNW 05:04:03 12° WNW visible
06 Apr 3.0 02:54:10 10° NNE 02:58:13 45° ENE 02:58:13 45° ENE visible
06 Apr 3.5 04:34:55 10° NNW 04:38:45 21° WNW 04:39:18 21° WNW visible
